CZ-6A R/B, 57835

Orbit data source: Space-Track

CZ-6A R/B, 57835 is space debris in LEO originally from a launch on Sun, 10 Sep 2023 UTC launched from the Taiyaun Space Center, China (TSC). Debris objects in space refer to the collection of defunct objects orbiting the Earth. Examples of debris include non-operational satellites, rocket bodies, and fragments generated from explosions, collisions, or faulty payload assembly.

Loading next visibility...
Identifier
57835, 2023-139F
Orbit
LEO
Country
Flag of CNCN / PRC
Related business
Manufacturer
Unknown
Mission
Spacecraft
Bus & Motor
Unknown
Mass
Unknown
Launch date (UTC)
2023-09-10 (3 years ago)
Launch vehicle
Unknown
Launch site
Taiyaun Space Center, China (TSC)
Object type
Payload
Rocket body
Debris
Shape & HBR
Unknown shape, 4.1 m
Radar Cross Section
Large (>1 m²)

Expand to show TLE details & history
Last TLE update: 2 days ago

TLE from 2 days ago
0 CZ-6A R/B
1 57835U 23139F   26171.47089794  .00000128  00000-0  34416-4 0  9994
2 57835  85.9964 239.0846 0059260 292.3188  67.1735 14.39023497145829
Epoch: 2026-06-20T11:18Z
TLE epoch observation values (Epoch: 2026-06-20T11:18:05.582Z)
Latitude
0.00006°
Longitude
160.87629°
Altitude
748.575 km
Speed
7.489 km/s
True Right ascension
15h 56m 20s
True Declination
0° 00' 00"
Sunlit
Object was in full shadow at epoch
Visualization orbit readout
Latitude
Unknown
Longitude
Unknown
Altitude
Unknown
Speed
Unknown
Apparent Right ascension
Unknown
Apparent Declination
Unknown
Sunlit
N/A
Visualization observer readout
Local Sidereal Time
21:31:37
Azimuth
Unknown
Elevation
Unknown
Doppler factor
Unknown
Orbital elements
Apogee altitude
800.986 km
Perigee altitude
716.4 km
Semi-major axis
7,136.83 km
Eccentricity
0.00593
Inclination
85.9964°
RAAN
239.0846°
Arg. of periapsis
292.3188°
True anomaly
67.80118°
Mean anomaly
67.1735°
Eccentric anomaly
67.48716°
Mean motion
3.59986 °/min
Orbital period
100 mins
BSTAR
0.000034416
Loading maneuver chart data...
Computing Atmospheric mass density...
Loading historical data...
Loading historical data...
Loading historical data...
Loading historical data...
Loading historical data...
Loading historical data...
Loading historical data...
Other satellites on launch #139 in the year 2023 (2023-09-10 UTC)

Documentation

Showing up to 5 results
|